EW6393 Weather Reports


Display with metric or nautical units.
time (UTC)temp
F
wind
direction
speed
MPH
gust
MPH
rain 1hr
in
rain 24hr
in
rain mn
in
humidity
%
barometer
mb
20260510200125 76 286 2.0 5.0 0.00 0.00 0.00 19 1022.2
20260510195653 75 226 3.0 7.0 0.00 0.00 0.00 19 1022.3
20260510195113 75 276 3.0 8.0 0.00 0.00 0.00 19 1022.3
20260510194621 76 248 4.0 9.0 0.00 0.00 0.00 18 1022.4
20260510194122 76 58 2.0 8.0 0.00 0.00 0.00 17 1022.4
20260510193623 77 127 2.0 5.0 0.00 0.00 0.00 18 1022.5
20260510193138 76 279 1.0 5.0 0.00 0.00 0.00 19 1022.6
20260510192618 75 28 2.0 6.0 0.00 0.00 0.00 17 1022.6
20260510192119 75 96 2.0 6.0 0.00 0.00 0.00 17 1022.7
20260510191626 75 124 4.0 6.0 0.00 0.00 0.00 17 1022.7
20260510191148 76 284 2.0 5.0 0.00 0.00 0.00 17 1022.8
20260510190636 76 312 2.0 5.0 0.00 0.00 0.00 20 1022.9
20260510185649 76 141 2.0 6.0 0.00 0.00 0.00 17 1023.0
20260510185130 76 142 2.0 5.0 0.00 0.00 0.00 19 1023.0
20260510184637 75 138 2.0 4.0 0.00 0.00 0.00 19 1023.0
20260510184119 74 293 1.0 4.0 0.00 0.00 0.00 19 1023.1
20260510183621 74 34 1.0 5.0 0.00 0.00 0.00 18 1023.1
20260510182627 75 282 2.0 4.0 0.00 0.00 0.00 21 1023.2
20260510182128 74 124 2.0 6.0 0.00 0.00 0.00 19 1023.2
20260510181637 74 315 2.0 6.0 0.00 0.00 0.00 20 1023.3
20260510181117 74 172 2.0 5.0 0.00 0.00 0.00 19 1023.4
20260510180618 74 118 3.0 5.0 0.00 0.00 0.00 19 1023.3
20260510180125 74 142 2.0 5.0 0.00 0.00 0.00 20 1023.4
20260510175625 74 276 1.0 4.0 0.00 0.00 0.00 20 1023.3
20260510175154 73 249 1.0 4.0 0.00 0.00 0.00 22 1023.4
20260510174634 73 287 2.0 4.0 0.00 0.00 0.00 20 1023.4
20260510174122 73 297 1.0 4.0 0.00 0.00 0.00 21 1023.4
20260510173621 73 135 2.0 6.0 0.00 0.00 0.00 19 1023.5
20260510173122 73 234 2.0 6.0 0.00 0.00 0.00 22 1023.4
20260510172650 73 41 2.0 4.0 0.00 0.00 0.00 20 1023.4
20260510172130 72 150 2.0 5.0 0.00 0.00 0.00 21 1023.4
20260510171638 72 221 1.0 5.0 0.00 0.00 0.00 23 1023.4
20260510171138 72 234 1.0 3.0 0.00 0.00 0.00 23 1023.5
20260510170625 72 238 2.0 3.0 0.00 0.00 0.00 23 1023.4
20260510170125 72 154 1.0 3.0 0.00 0.00 0.00 22 1023.4
20260510165626 71 224 1.0 3.0 0.00 0.00 0.00 22 1023.5
20260510165134 70 139 1.0 3.0 0.00 0.00 0.00 24 1023.4
20260510164613 70 231 1.0 7.0 0.00 0.00 0.00 23 1023.4
20260510164121 70 137 1.0 7.0 0.00 0.00 0.00 24 1023.3
20260510163621 70 148 2.0 4.0 0.00 0.00 0.00 23 1023.2
20260510163123 70 213 1.0 5.0 0.00 0.00 0.00 27 1023.2
20260510162630 70 158 3.0 5.0 0.00 0.00 0.00 24 1023.3
20260510162111 70 238 1.0 3.0 0.00 0.00 0.00 25 1023.3
20260510161638 70 162 2.0 3.0 0.00 0.00 0.00 24 1023.2
20260510161118 70 223 1.0 2.0 0.00 0.00 0.00 25 1023.2
20260510160620 70 233 0.0 4.0 0.00 0.00 0.00 27 1023.4
20260510160121 69 225 1.0 4.0 0.00 0.00 0.00 26 1023.4
20260510155629 69 192 0.0 2.0 0.00 0.00 0.00 28 1023.3
20260510155130 69 229 1.0 2.0 0.00 0.00 0.00 25 1023.3
20260510154612 68 227 1.0 2.0 0.00 0.00 0.00 28 1023.2
20260510154120 68 277 0.0 2.0 0.00 0.00 0.00 30 1023.3
20260510153620 68 233 1.0 2.0 0.00 0.00 0.00 29 1023.3
20260510153121 67 339 0.0 2.0 0.00 0.00 0.00 31 1023.3
20260510152628 67 205 1.0 2.0 0.00 0.00 0.00 29 1023.4
20260510152129 66 246 0.0 1.0 0.00 0.00 0.00 29 1023.4
20260510151638 66 255 0.0 1.0 0.00 0.00 0.00 29 1023.4
20260510151117 65 259 0.0 1.0 0.00 0.00 0.00 29 1023.4
20260510150617 65 257 0.0 1.0 0.00 0.00 0.00 28 1023.4
20260510150125 65 256 0.0 1.0 0.00 0.00 0.00 28 1023.4
20260510145626 64 256 0.0 1.0 0.00 0.00 0.00 28 1023.4
20260510145113 64 261 0.0 1.0 0.00 0.00 0.00 28 1023.4
20260510144615 64 261 0.0 1.0 0.00 0.00 0.00 27 1023.3
20260510144143 63 261 0.0 1.0 0.00 0.00 0.00 30 1023.3
20260510143623 63 255 0.0 1.0 0.00 0.00 0.00 33 1023.2
20260510143131 64 255 0.0 1.0 0.00 0.00 0.00 33 1023.2
20260510142613 65 283 0.0 1.0 0.00 0.00 0.00 27 1023.1
20260510142135 65 53 0.0 0.0 0.00 0.00 0.00 28 1023.1
20260510141621 64 53 0.0 1.0 0.00 0.00 0.00 33 1023.2
20260510141122 63 53 0.0 1.0 0.00 0.00 0.00 30 1023.2
20260510140651 62 53 0.0 1.0 0.00 0.00 0.00 32 1023.2
20260510140130 61 63 0.0 1.0 0.00 0.00 0.00 33 1023.0
20260510135637 60 63 0.0 1.0 0.00 0.00 0.00 30 1023.0
20260510135138 59 63 0.0 1.0 0.00 0.00 0.00 35 1023.0
20260510134618 58 63 0.0 1.0 0.00 0.00 0.00 34 1022.9
20260510134127 57 63 0.0 2.0 0.00 0.00 0.00 37 1022.9
20260510133651 55 63 0.0 2.0 0.00 0.00 0.00 37 1022.8
20260510133116 54 64 0.0 2.0 0.00 0.00 0.00 40 1022.8
20260510132633 54 64 1.0 2.0 0.00 0.00 0.00 38 1022.7
20260510132120 55 64 1.0 2.0 0.00 0.00 0.00 37 1022.6
20260510131641 55 64 1.0 2.0 0.00 0.00 0.00 36 1022.6
20260510131128 55 64 0.0 2.0 0.00 0.00 0.00 35 1022.5
20260510130629 54 64 1.0 2.0 0.00 0.00 0.00 36 1022.5
20260510130136 55 64 1.0 1.0 0.00 0.00 0.00 35 1022.4
20260510125617 54 64 0.0 1.0 0.00 0.00 0.00 35 1022.4
20260510125118 54 64 0.0 1.0 0.00 0.00 0.00 36 1022.3
20260510124626 55 64 1.0 2.0 0.00 0.00 0.00 35 1022.3
20260510124111 54 64 1.0 2.0 0.00 0.00 0.00 35 1022.3
20260510123612 54 56 0.0 2.0 0.00 0.00 0.00 35 1022.2
20260510123113 54 64 1.0 2.0 0.00 0.00 0.00 36 1022.2
20260510122622 54 88 1.0 2.0 0.00 0.00 0.00 35 1022.1
20260510122123 54 65 1.0 2.0 0.00 0.00 0.00 36 1022.2
20260510121632 54 65 0.0 2.0 0.00 0.00 0.00 36 1022.1
20260510121133 54 65 0.0 2.0 0.00 0.00 0.00 37 1022.1
20260510120613 54 65 1.0 2.0 0.00 0.00 0.00 35 1022.1
20260510120119 54 65 0.0 1.0 0.00 0.00 0.00 35 1022.0
20260510115620 54 65 0.0 1.0 0.00 0.00 0.00 35 1022.0
20260510115128 55 68 0.0 1.0 0.00 0.00 0.00 34 1022.0
20260510114629 55 61 0.0 2.0 0.00 0.00 0.00 33 1022.0
20260510114131 55 61 1.0 2.0 0.00 0.00 0.00 34 1022.0
20260510113611 55 61 0.0 2.0 0.00 0.00 0.00 33 1021.9
20260510113119 55 61 0.0 2.0 0.00 0.00 0.00 34 1021.9
20260510112620 54 51 1.0 1.0 0.00 0.00 0.00 34 1021.8
20260510112129 54 256 0.0 2.0 0.00 0.00 0.00 35 1021.8
20260510111630 54 37 0.0 2.0 0.00 0.00 0.00 35 1021.8
20260510111111 55 16 0.0 1.0 0.00 0.00 0.00 35 1021.7
20260510110612 55 342 0.0 1.0 0.00 0.00 0.00 34 1021.8
20260510110120 55 342 0.0 1.0 0.00 0.00 0.00 34 1021.7
20260510105617 56 340 0.0 1.0 0.00 0.00 0.00 33 1021.8
20260510105141 56 17 0.0 2.0 0.00 0.00 0.00 32 1021.7
20260510104649 57 301 0.0 2.0 0.00 0.00 0.00 31 1021.7
20260510104145 58 311 0.0 3.0 0.00 0.00 0.00 29 1021.6
20260510103651 59 285 1.0 3.0 0.00 0.00 0.00 28 1021.6
20260510103118 60 316 1.0 3.0 0.00 0.00 0.00 28 1021.6
20260510102617 60 235 0.0 4.0 0.00 0.00 0.00 26 1021.5
20260510102145 61 109 1.0 5.0 0.00 0.00 0.00 26 1021.5
20260510101625 62 296 1.0 9.0 0.00 0.00 0.00 25 1021.5
20260510101133 62 56 1.0 9.0 0.00 0.00 0.00 25 1021.4
20260510100613 63 27 3.0 10.0 0.00 0.00 0.00 25 1021.3
20260510100113 63 24 3.0 10.0 0.00 0.00 0.00 25 1021.3
20260510095622 63 136 3.0 11.0 0.00 0.00 0.00 25 1021.2
20260510095124 63 53 4.0 11.0 0.00 0.00 0.00 25 1021.2
20260510094629 63 87 5.0 15.0 0.00 0.00 0.00 24 1021.2
20260510094128 63 49 5.0 15.0 0.00 0.00 0.00 24 1021.2
20260510093636 63 77 3.0 9.0 0.00 0.00 0.00 24 1021.2
20260510093138 63 61 4.0 9.0 0.00 0.00 0.00 24 1021.2
20260510092618 63 105 4.0 10.0 0.00 0.00 0.00 24 1021.2
20260510092126 62 94 4.0 9.0 0.00 0.00 0.00 24 1021.3
20260510091626 62 69 2.0 9.0 0.00 0.00 0.00 25 1021.2
20260510091134 62 70 3.0 9.0 0.00 0.00 0.00 25 1021.2
20260510090615 62 43 3.0 10.0 0.00 0.00 0.00 25 1021.1
20260510090140 62 31 4.0 10.0 0.00 0.00 0.00 25 1021.1
20260510085620 62 55 3.0 7.0 0.00 0.00 0.00 25 1021.1
20260510085121 62 333 1.0 6.0 0.00 0.00 0.00 25 1021.1
20260510084629 62 66 2.0 6.0 0.00 0.00 0.00 24 1021.1
20260510084131 62 67 2.0 12.0 0.00 0.00 0.00 25 1021.1
20260510083611 63 56 5.0 12.0 0.00 0.00 0.00 24 1021.1
20260510083111 62 56 1.0 8.0 0.00 0.00 0.00 24 1021.0
20260510082619 63 63 3.0 8.0 0.00 0.00 0.00 24 1021.0
20260510082126 63 54 1.0 9.0 0.00 0.00 0.00 24 1021.0
20260510081647 63 58 4.0 9.0 0.00 0.00 0.00 24 1020.9
20260510081134 63 63 3.0 7.0 0.00 0.00 0.00 24 1021.0
20260510080612 63 123 2.0 8.0 0.00 0.00 0.00 24 1020.9
20260510080120 63 58 3.0 8.0 0.00 0.00 0.00 24 1020.9
20260510075620 63 309 2.0 6.0 0.00 0.00 0.00 24 1020.8
20260510075128 63 36 2.0 7.0 0.00 0.00 0.00 24 1020.8
20260510074628 63 89 3.0 8.0 0.00 0.00 0.00 24 1020.9
20260510074137 63 45 2.0 8.0 0.00 0.00 0.00 24 1020.9
20260510073639 62 33 2.0 6.0 0.00 0.00 0.00 23 1020.9
20260510073119 63 319 2.0 9.0 0.00 0.00 0.00 23 1020.9
20260510072626 63 55 4.0 9.0 0.00 0.00 0.00 23 1020.8
20260510072127 63 28 3.0 6.0 0.00 0.00 0.00 22 1020.8
20260510071636 63 49 1.0 8.0 0.00 0.00 0.00 22 1020.9
20260510071136 63 20 3.0 8.0 0.00 0.00 0.00 22 1020.8
20260510070615 63 15 3.0 7.0 0.00 0.00 0.00 21 1020.7
20260510070122 63 37 2.0 6.0 0.00 0.00 0.00 21 1020.6
20260510065650 63 24 2.0 8.0 0.00 0.00 0.00 22 1020.6
20260510065150 63 343 3.0 8.0 0.00 0.00 0.00 21 1020.6
20260510064637 63 59 2.0 6.0 0.00 0.00 0.00 21 1020.5
20260510064117 63 51 2.0 5.0 0.00 0.00 0.00 21 1020.5
20260510063618 63 88 2.0 6.0 0.00 0.00 0.00 21 1020.5
20260510063119 63 12 2.0 4.0 0.00 0.00 0.00 21 1020.5
20260510062627 63 56 1.0 4.0 0.00 0.00 0.00 22 1020.3
20260510062127 63 32 1.0 4.0 0.00 0.00 0.00 22 1020.3
20260510061635 63 46 0.0 2.0 0.00 0.00 0.00 22 1020.3
20260510061116 63 61 1.0 2.0 0.00 0.00 0.00 22 1020.2
20260510060614 63 77 1.0 2.0 0.00 0.00 0.00 22 1020.1
20260510060122 63 65 0.0 3.0 0.00 0.00 0.00 21 1020.1
20260510055623 63 2 1.0 4.0 0.00 0.00 0.00 21 1020.1
20260510055124 63 30 1.0 7.0 0.00 0.00 0.00 21 1020.1
20260510054633 63 29 1.0 7.0 0.00 0.00 0.00 21 1020.1
20260510054134 62 63 0.0 2.0 0.00 0.00 0.00 22 1019.9
20260510053613 62 53 0.0 3.0 0.00 0.00 0.00 22 1019.9
20260510053121 62 43 1.0 3.0 0.00 0.00 0.00 21 1020.0
20260510052649 62 45 0.0 3.0 0.00 0.00 0.00 21 1020.1
20260510052129 62 14 0.0 3.0 0.00 0.00 0.00 21 1020.0
20260510051630 62 49 0.0 2.0 0.00 0.00 0.00 21 1019.9
20260510051137 62 72 1.0 2.0 0.00 0.00 0.00 21 1019.9
20260510050638 62 68 0.0 3.0 0.00 0.00 0.00 22 1020.0
20260510050124 63 49 0.0 5.0 0.00 0.00 0.00 22 1019.9
20260510045620 63 65 2.0 3.0 0.00 0.00 0.00 21 1020.1
20260510045120 63 36 1.0 4.0 0.00 0.00 0.00 21 1020.0
20260510044649 63 94 1.0 4.0 0.00 0.00 0.00 22 1019.9
20260510044136 63 23 1.0 3.0 0.00 0.00 0.00 22 1019.9
20260510043616 63 65 1.0 5.0 0.00 0.00 0.00 22 1019.8
20260510043117 63 75 1.0 4.0 0.00 0.00 0.00 22 1019.8
20260510042618 63 60 0.0 3.0 0.00 0.00 0.00 21 1019.8
20260510042126 63 35 1.0 4.0 0.00 0.00 0.00 21 1019.8
20260510041627 63 67 2.0 4.0 0.00 0.00 0.00 21 1019.8
20260510041135 63 65 1.0 3.0 0.00 0.00 0.00 21 1019.7
20260510040616 63 70 2.0 5.0 0.00 0.00 0.00 20 1019.6
20260510040117 63 73 2.0 5.0 0.00 0.00 0.00 20 1019.6
20260510035623 63 58 2.0 4.0 0.00 0.00 0.00 20 1019.5
20260510035124 63 89 1.0 3.0 0.00 0.00 0.00 20 1019.4
20260510034631 63 59 1.0 4.0 0.00 0.00 0.00 19 1019.4
20260510034112 63 68 1.0 4.0 0.00 0.00 0.00 19 1019.3
20260510033658 64 53 1.0 5.0 0.00 0.00 0.00 19 1019.3
20260510033138 64 61 2.0 5.0 0.00 0.00 0.00 19 1019.1
20260510032625 64 65 2.0 5.0 0.00 0.00 0.00 19 1019.0
20260510032125 64 76 2.0 4.0 0.00 0.00 0.00 20 1018.9
20260510031626 64 56 1.0 3.0 0.00 0.00 0.00 19 1018.9
20260510031134 64 19 2.0 4.0 0.00 0.00 0.00 19 1018.8
20260510030614 64 72 2.0 4.0 0.00 0.00 0.00 19 1018.8
20260510030121 64 70 2.0 4.0 0.00 0.00 0.00 20 1018.8
20260510025623 64 60 1.0 3.0 0.00 0.00 0.00 20 1018.7
20260510025151 64 58 1.0 4.0 0.00 0.00 0.00 20 1018.6
20260510024630 64 50 2.0 4.0 0.00 0.00 0.00 20 1018.6
20260510024112 65 51 1.0 3.0 0.00 0.00 0.00 21 1018.5
20260510023640 66 41 1.0 3.0 0.00 0.00 0.00 20 1018.4
20260510023126 67 124 0.0 1.0 0.00 0.00 0.00 19 1018.3
20260510022647 68 126 0.0 1.0 0.00 0.00 0.00 19 1018.3
20260510022133 70 137 0.0 1.0 0.00 0.00 0.00 19 1018.2
20260510021613 72 146 0.0 0.0 0.00 0.00 0.00 15 1018.2
20260510021120 74 146 0.0 0.0 0.00 0.00 0.00 15 1018.2
20260510020642 75 146 0.0 0.0 0.00 0.00 0.00 13 1018.2
20260510020128 75 146 0.0 0.0 0.00 0.00 0.00 16 1018.1
20260510015629 74 146 0.0 1.0 0.00 0.00 0.00 13 1018.1
20260510015137 74 146 0.0 2.0 0.00 0.00 0.00 13 1018.2
20260510014629 74 266 1.0 2.0 0.00 0.00 0.00 13 1018.2
20260510014130 75 214 0.0 1.0 0.00 0.00 0.00 14 1018.1
20260510013638 74 136 0.0 1.0 0.00 0.00 0.00 14 1018.2
20260510013118 74 196 0.0 2.0 0.00 0.00 0.00 12 1018.2
20260510012618 73 275 1.0 3.0 0.00 0.00 0.00 13 1018.2
20260510012126 73 267 0.0 3.0 0.00 0.00 0.00 14 1018.3
20260510011647 74 302 1.0 3.0 0.00 0.00 0.00 14 1018.3
20260510011133 74 266 0.0 3.0 0.00 0.00 0.00 14 1018.3
20260510010634 74 353 1.0 4.0 0.00 0.00 0.00 13 1018.3
20260510010120 74 21 2.0 4.0 0.00 0.00 0.00 12 1018.4
20260510005641 75 118 1.0 2.0 0.00 0.00 0.00 13 1018.5
20260510005128 75 24 1.0 2.0 0.00 0.00 0.00 15 1018.5
20260510004645 74 30 0.0 4.0 0.00 0.00 0.00 14 1018.5
20260510004132 75 279 2.0 4.0 0.00 0.00 0.00 14 1018.5
20260510003616 74 260 0.0 5.0 0.00 0.00 0.00 13 1018.6
20260510003141 74 270 2.0 5.0 0.00 0.00 0.00 14 1018.6
20260510002621 74 125 0.0 6.0 0.00 0.00 0.00 13 1018.6
20260510002149 73 248 3.0 6.0 0.00 0.00 0.00 13 1018.6
20260510001628 74 293 2.0 8.0 0.00 0.00 0.00 14 1018.6
20260510001136 73 302 3.0 8.0 0.00 0.00 0.00 14 1018.6
20260510000637 74 252 1.0 7.0 0.00 0.00 0.00 15 1018.7
20260510000142 74 315 2.0 6.0 0.00 0.00 0.00 14 1018.7
20260509235618 74 264 1.0 7.0 0.00 0.00 0.00 16 1018.6
20260509235126 74 259 2.0 5.0 0.00 0.00 0.00 17 1018.8
20260509234655 73 228 2.0 6.0 0.00 0.00 0.00 14 1018.8
20260509234114 73 319 3.0 7.0 0.00 0.00 0.00 14 1018.8
20260509233615 73 281 4.0 9.0 0.00 0.00 0.00 14 1018.8
20260509233116 73 301 4.0 9.0 0.00 0.00 0.00 14 1018.8
20260509232623 73 262 2.0 8.0 0.00 0.00 0.00 14 1018.8
20260509232130 73 282 2.0 6.0 0.00 0.00 0.00 15 1018.8
20260509231611 73 245 4.0 9.0 0.00 0.00 0.00 14 1019.0
20260509231138 73 308 2.0 9.0 0.00 0.00 0.00 15 1018.9
20260509230618 73 337 2.0 9.0 0.00 0.00 0.00 14 1019.1
20260509230125 73 23 4.0 7.0 0.00 0.00 0.00 14 1019.0
20260509225625 73 300 3.0 7.0 0.00 0.00 0.00 14 1019.0
20260509225126 73 347 3.0 7.0 0.00 0.00 0.00 15 1019.1
20260509224634 73 261 2.0 8.0 0.00 0.00 0.00 14 1019.2
20260509224114 73 333 4.0 8.0 0.00 0.00 0.00 15 1019.3
20260509223615 73 245 4.0 8.0 0.00 0.00 0.00 16 1019.2
20260509223122 73 257 3.0 11.0 0.00 0.00 0.00 16 1019.1
20260509222644 73 250 5.0 11.0 0.00 0.00 0.00 17 1019.2
20260509222131 73 326 2.0 11.0 0.00 0.00 0.00 18 1019.2
20260509221611 73 295 4.0 11.0 0.00 0.00 0.00 18 1019.4
20260509221159 73 304 2.0 9.0 0.00 0.00 0.00 18 1019.3
20260509220617 72 314 5.0 9.0 0.00 0.00 0.00 20 1019.3
20260509220116 72 38 3.0 9.0 0.00 0.00 0.00 19 1019.4
20260509215620 72 29 2.0 13.0 0.00 0.00 0.00 20 1019.4
20260509215121 73 264 4.0 13.0 0.00 0.00 0.00 20 1019.5
20260509214628 72 280 3.0 12.0 0.00 0.00 0.00 19 1019.4
20260509214129 72 274 4.0 12.0 0.00 0.00 0.00 19 1019.5
20260509213639 72 31 4.0 10.0 0.00 0.00 0.00 19 1019.4
20260509213140 72 351 2.0 14.0 0.00 0.00 0.00 19 1019.4
20260509212624 72 307 6.0 14.0 0.00 0.00 0.00 18 1019.6
20260509212125 72 279 3.0 7.0 0.00 0.00 0.00 18 1019.4
20260509211633 72 308 2.0 8.0 0.00 0.00 0.00 20 1019.5
20260509211114 72 280 4.0 8.0 0.00 0.00 0.00 19 1019.6
20260509210614 72 352 3.0 8.0 0.00 0.00 0.00 19 1019.7
20260509210114 72 263 3.0 9.0 0.00 0.00 0.00 18 1019.7
20260509205621 72 233 5.0 9.0 0.00 0.00 0.00 19 1019.6
20260509205149 72 296 3.0 7.0 0.00 0.00 0.00 16 1019.6
20260509204628 72 10 3.0 12.0 0.00 0.00 0.00 17 1019.7
20260509204129 72 323 3.0 12.0 0.00 0.00 0.00 18 1019.7
20260509203638 71 300 2.0 13.0 0.00 0.00 0.00 17 1019.7
20260509203117 71 257 5.0 13.0 0.00 0.00 0.00 16 1019.7
20260509202644 71 248 5.0 11.0 0.00 0.00 0.00 17 1019.7
20260509202123 72 261 4.0 10.0 0.00 0.00 0.00 19 1019.8
20260509201631 71 262 3.0 8.0 0.00 0.00 0.00 20 1019.8
20260509201112 71 272 3.0 7.0 0.00 0.00 0.00 19 1019.9
20260509200613 71 261 3.0 7.0 0.00 0.00 0.00 20 1020.1